Flight Track Log - Related Links

Times and Time Zones

All times are in EST time to prevent confusion due to time zone crossing. See the ASA404 flight status page for this flight to view local times or setup timezone preferences in your user account.

Time Position Orientation Groundspeed Altitude Reporting Facility
EST Latitude Longitude Course Direction KTS MPH feet Rate Location/Type
Thu 11:02:43 PM 45.6006 -122.6369 302° West 165 190 1,400  Level Seattle Center
Thu 11:03:26 PM 45.6231 -122.6878 302° West 221 254 2,600 2,262 Climbing Seattle Center
Thu 11:03:44 PM 45.6331 -122.7103 302° West 222 255 3,700 3,190 Climbing Seattle Center
Thu 11:04:45 PM 45.6372 -122.7908 274° West 218 251 6,800 2,557 Climbing Seattle Center
Thu 11:05:46 PM 45.5661 -122.8239 198° South 275 316 8,900 2,016 Climbing Seattle Center
Thu 11:06:47 PM 45.4878 -122.8553 196° South 293 337 10,900 2,213 Climbing Seattle Center
Thu 11:07:48 PM 45.3958 -122.8950 197° South 344 396 13,400 2,607 Climbing Seattle Center
Thu 11:08:49 PM 45.2914 -122.9386 196° South 363 418 16,200 2,361 Climbing Seattle Center
Thu 11:09:50 PM 45.2067 -122.9742 196° South 376 433 18,200 2,115 Climbing Seattle Center
Thu 11:10:51 PM 45.0953 -122.9986 189° South 393 452 20,500 2,311 Climbing Seattle Center
Thu 11:11:52 PM 44.9847 -123.0253 190° South 399 459 22,900 1,983 Climbing Seattle Center
Thu 11:12:52 PM 44.8667 -123.0522 189° South 417 480 24,500 1,636 Climbing Seattle Center
Thu 11:13:53 PM 44.7436 -123.0797 189° South 439 505 26,200 1,721 Climbing Seattle Center
Thu 11:14:54 PM 44.6178 -123.1081 189° South 452 520 28,000 1,869 Climbing Seattle Center
Thu 11:15:55 PM 44.4917 -123.1350 189° South 456 525 30,000 1,672 Climbing Seattle Center
Thu 11:16:56 PM 44.3636 -123.1292 178° South 457 526 31,400 1,438 Climbing Seattle Center
Thu 11:17:56 PM 44.2053 -123.1236 179° South 468 539 32,900 793 Climbing Seattle Center
Thu 11:18:57 PM 44.0775 -123.1197 179° South 464 534 33,000 49 Climbing Seattle Center
Thu 11:19:58 PM 43.9472 -123.1147 178° South 457 526 33,000  Level Seattle Center
Thu 11:20:58 PM 43.8183 -123.1097 178° South 460 529 33,000  Level Seattle Center
Thu 11:22:00 PM 43.6903 -123.1067 179° South 460 529 33,000  Level Seattle Center
Thu 11:23:00 PM 43.5639 -123.1019 178° South 457 526 33,000  Level Seattle Center
Thu 11:24:01 PM 43.4358 -123.0967 178° South 458 527 33,000  Level Seattle Center
Thu 11:25:01 PM 43.3106 -123.0922 179° South 452 520 33,000  Level Seattle Center
Thu 11:26:02 PM 43.1847 -123.0886 179° South 451 519 33,000  Level Seattle Center
Thu 11:27:03 PM 43.0589 -123.0833 178° South 452 520 33,000  Level Seattle Center
Thu 11:28:03 PM 42.9328 -123.0792 179° South 452 520 33,000  Level Seattle Center
Thu 11:29:04 PM 42.8067 -123.0747 179° South 453 521 33,000  Level Seattle Center
Thu 11:30:05 PM 42.6839 -123.0717 179° South 455 524 33,000  Level Seattle Center
Thu 11:31:06 PM 42.5578 -123.0667 178° South 456 525 33,000  Level Seattle Center
Thu 11:32:06 PM 42.4314 -123.0625 179° South 456 525 33,000  Level Seattle Center
Thu 11:33:07 PM 42.3053 -123.0586 179° South 456 525 33,000  Level Seattle Center
Thu 11:34:08 PM 42.1544 -123.0528 178° South 455 524 33,000  Level Seattle Center
Thu 11:35:08 PM 42.0278 -123.0500 179° South 457 526 33,000  Level Seattle Center
Thu 11:36:09 PM 41.9022 -123.0439 178° South 455 524 33,000  Level Seattle Center
Thu 11:37:10 PM 41.7758 -123.0378 178° South 458 527 33,000  Level Seattle Center
Thu 11:38:10 PM 41.6492 -123.0314 178° South 458 527 33,000  Level Seattle Center
Thu 11:39:11 PM 41.5250 -123.0261 178° South 451 519 33,000  Level Seattle Center
Thu 11:40:12 PM 41.4025 -123.0211 178° South 446 513 33,000  Level Seattle Center
Thu 11:41:13 PM 41.2833 -123.0164 178° South 445 512 33,000  Level Seattle Center
Thu 11:42:13 PM 41.1589 -123.0106 178° South 447 514 33,000  Level Seattle Center
Thu 11:43:03 PM 41.0592 -123.0050 178° South 445 512 33,000  Level Oakland Center
Thu 11:44:04 PM 40.9111 -122.9986 178° South 443 510 33,000  Level Oakland Center
Thu 11:45:05 PM 40.7983 -122.9925 178° South 448 516 33,000  Level Oakland Center
Thu 11:46:06 PM 40.6731 -122.9875 178° South 451 519 33,000  Level Oakland Center
Thu 11:47:07 PM 40.5483 -122.9811 178° South 450 518 33,000  Level Oakland Center
Thu 11:48:08 PM 40.4228 -122.9753 178° South 452 520 33,000  Level Oakland Center
Thu 11:49:09 PM 40.2739 -122.9683 178° South 450 518 33,000  Level Oakland Center
Thu 11:50:10 PM 40.1500 -122.9619 178° South 450 518 33,000  Level Oakland Center
Thu 11:51:11 PM 40.0256 -122.9564 178° South 452 520 33,000  Level Oakland Center
Thu 11:52:12 PM 39.9006 -122.9506 178° South 452 520 33,000  Level Oakland Center
Thu 11:53:13 PM 39.7736 -122.9439 178° South 457 526 33,000  Level Oakland Center
Thu 11:54:14 PM 39.6483 -122.9394 178° South 454 522 33,000  Level Oakland Center
Thu 11:55:15 PM 39.5208 -122.9311 177° South 459 528 33,000  Level Oakland Center
Thu 11:56:16 PM 39.3961 -122.9269 179° South 458 527 33,000  Level Oakland Center
Thu 11:57:17 PM 39.2697 -122.9194 177° South 456 525 33,000 -443 Level Oakland Center
Thu 11:58:18 PM 39.1158 -122.9150 179° South 461 531 32,100 -836 Descending Oakland Center
Thu 11:59:19 PM 38.9922 -122.9081 177° South 451 519 31,300 -590 Descending Oakland Center
Fri 12:00:20 AM 38.8678 -122.9033 178° South 448 516 30,900 -148 Descending Oakland Center
Fri 12:01:21 AM 38.7436 -122.8967 178° South 449 517 31,000 49 Climbing Oakland Center
Fri 12:02:22 AM 38.6192 -122.8914 178° South 449 517 31,000 -439 Level Oakland Center
Fri 12:03:24 AM 38.4953 -122.8856 178° South 448 516 30,100 -1,610 Descending Oakland Center
Fri 12:04:25 AM 38.3725 -122.8811 178° South 445 512 27,700 -2,361 Descending Oakland Center
Fri 12:05:26 AM 38.2539 -122.8750 178° South 432 497 25,300 -2,311 Descending Oakland Center
Fri 12:06:27 AM 38.1389 -122.8694 178° South 419 482 23,000 -2,164 Descending Oakland Center
Fri 12:07:28 AM 38.0378 -122.8236 160° South 413 475 20,900 -2,262 Descending Oakland Center
Fri 12:08:29 AM 37.9375 -122.7142 139° Southeast 402 463 18,400 -2,262 Descending Oakland Center
Fri 12:09:30 AM 37.8603 -122.6303 139° Southeast 386 444 16,300 -2,066 Descending Oakland Center
Fri 12:10:31 AM 37.7814 -122.5475 140° Southeast 379 436 14,200 -1,967 Descending Oakland Center
Fri 12:11:32 AM 37.7042 -122.4650 140° Southeast 369 425 12,300 -1,082 Descending Oakland Center
Fri 12:12:33 AM 37.6283 -122.4036 147° Southeast 340 391 12,000 -148 Descending Oakland Center
Fri 12:13:34 AM 37.5600 -122.3417 144° Southeast 310 357 12,000  Level Oakland Center
Fri 12:14:35 AM 37.4667 -122.2872 155° Southeast 308 354 12,000 -98 Level Oakland Center
Fri 12:15:36 AM 37.3892 -122.2392 154° Southeast 309 356 11,800 -492 Descending Oakland Center
Fri 12:16:37 AM 37.3122 -122.1939 155° Southeast 308 354 11,000 -393 Descending Oakland Center
Fri 12:17:38 AM 37.2544 -122.1203 135° Southeast 306 352 11,000 -585 Level Oakland Center
Fri 12:18:40 AM 37.2069 -122.0358 125° Southeast 297 342 9,800 -1,171 Descending Oakland Center
Fri 12:19:41 AM 37.1803 -121.9442 110° East 280 322 8,600 -1,131 Descending Oakland Center
Fri 12:20:42 AM 37.1611 -121.8606 106° East 259 298 7,500 -1,377 Descending Oakland Center
Fri 12:21:43 AM 37.1850 -121.8047 62° Northeast 203 234 5,800 -1,721 Descending Oakland Center
Fri 12:22:44 AM 37.2286 -121.8044 360° North 186 214 4,000 -1,721 Descending Oakland Center
Fri 12:23:45 AM 37.2706 -121.8311 333° Northwest 176 203 2,300 -1,328 Descending Oakland Center
Fri 12:24:46 AM 37.3056 -121.8664 321° Northwest 169 194 1,300 -878 Descending Oakland Center
Fri 12:25:48 AM 37.3408 -121.9072 317° Northwest 154 177 500 5,262 Descending Oakland Center
Fri 12:26:48 AM 37.3675 -121.9375 318° Northwest 141 162 12,000 11,500 Climbing Oakland Center

Login

Don't have an account? Register now (free) for customized features, flight alerts, and more!